Weather reports worldwide

Advertisment
Monte Settepani, Italy (16111): temperature & dewpoint: 19.03.2019 07:00:00 - 25.03.2019 07:00:00 (CET)
Date & Time tt [°C] td [°C]
25.03.2019 07:00:00 - -
25.03.2019 06:00:00 10,8 -0,5
25.03.2019 05:00:00 11,0 -0,6
25.03.2019 04:00:00 11,1 -0,8
25.03.2019 03:00:00 10,9 -0,4
25.03.2019 02:00:00 11,0 -1,5
25.03.2019 01:00:00 12,0 -0,3
25.03.2019 00:00:00 - -
24.03.2019 23:00:00 - -
24.03.2019 22:00:00 12,1 -0,5
24.03.2019 21:00:00 11,3 0,0
24.03.2019 20:00:00 10,7 -0,6
24.03.2019 19:00:00 10,3 -1,5
24.03.2019 18:00:00 11,1 -
24.03.2019 17:00:00 11,6 -
24.03.2019 16:00:00 12,7 1,3
24.03.2019 15:00:00 13,2 -
24.03.2019 14:00:00 14,0 2,8
24.03.2019 13:00:00 14,4 1,9
24.03.2019 12:00:00 14,1 0,6
24.03.2019 11:00:00 13,6 0,5
24.03.2019 10:00:00 11,9 -0,1
24.03.2019 09:00:00 9,8 -1,4
24.03.2019 08:00:00 8,6 -1,3
24.03.2019 07:00:00 7,9 -
24.03.2019 06:00:00 7,8 -1,6
24.03.2019 05:00:00 8,0 -1,9
24.03.2019 04:00:00 7,9 -1,5
24.03.2019 03:00:00 8,1 -1,0
24.03.2019 02:00:00 8,1 -1,3
24.03.2019 01:00:00 8,3 -
24.03.2019 00:00:00 8,6 -1,3
23.03.2019 23:00:00 - -
23.03.2019 22:00:00 9,2 -2,2
23.03.2019 21:00:00 - -
23.03.2019 20:00:00 9,6 -2,2
23.03.2019 19:00:00 10,7 -
23.03.2019 18:00:00 11,5 -3,6
23.03.2019 17:00:00 12,8 -3,6
23.03.2019 16:00:00 14,0 -
23.03.2019 15:00:00 14,6 -1,2
23.03.2019 14:00:00 14,9 -1,3
23.03.2019 13:00:00 13,2 -
23.03.2019 12:00:00 12,5 -6,1
23.03.2019 11:00:00 11,5 -7,5
23.03.2019 10:00:00 9,7 -7,2
23.03.2019 09:00:00 8,7 -8,1
23.03.2019 08:00:00 7,9 -8,3
23.03.2019 07:00:00 7,0 -6,1
23.03.2019 06:00:00 7,1 -8,2
23.03.2019 05:00:00 7,2 -9,4
23.03.2019 04:00:00 7,8 -12,2
23.03.2019 03:00:00 8,2 -15,5
23.03.2019 02:00:00 8,4 -16,8
23.03.2019 01:00:00 8,3 -16,1
23.03.2019 00:00:00 8,2 -14,8
22.03.2019 23:00:00 8,2 -17,0
22.03.2019 22:00:00 7,8 -18,1
22.03.2019 21:00:00 - -
22.03.2019 20:00:00 - -
22.03.2019 19:00:00 7,9 -9,6
22.03.2019 18:00:00 9,4 -10,3
22.03.2019 17:00:00 10,6 -9,3
22.03.2019 16:00:00 10,7 -
22.03.2019 15:00:00 10,5 -6,9
22.03.2019 14:00:00 10,1 -5,6
22.03.2019 13:00:00 9,4 -6,2
22.03.2019 12:00:00 8,6 -
22.03.2019 11:00:00 8,0 -6,3
22.03.2019 10:00:00 6,0 -
22.03.2019 09:00:00 4,9 -
22.03.2019 08:00:00 3,3 -5,0
22.03.2019 07:00:00 2,7 -
22.03.2019 06:00:00 2,5 -6,0
22.03.2019 05:00:00 2,6 -7,7
22.03.2019 04:00:00 3,0 -13,0
22.03.2019 03:00:00 3,9 -
22.03.2019 02:00:00 4,4 -12,7
22.03.2019 01:00:00 4,3 -11,5
22.03.2019 00:00:00 3,8 -9,0
21.03.2019 23:00:00 3,2 -
21.03.2019 22:00:00 3,3 -8,2
21.03.2019 21:00:00 - -
21.03.2019 20:00:00 - -
21.03.2019 19:00:00 3,5 -
21.03.2019 18:00:00 3,6 -3,8
21.03.2019 17:00:00 3,8 -4,3
21.03.2019 16:00:00 4,6 -4,8
21.03.2019 15:00:00 4,3 -4,1
21.03.2019 14:00:00 3,6 -3,3
21.03.2019 13:00:00 2,5 -3,7
21.03.2019 12:00:00 1,7 -
21.03.2019 11:00:00 0,5 -4,2
21.03.2019 10:00:00 -0,2 -4,5
21.03.2019 09:00:00 -0,8 -4,7
21.03.2019 08:00:00 -1,4 -5,3
21.03.2019 07:00:00 -1,8 -5,5
21.03.2019 06:00:00 -1,8 -
21.03.2019 05:00:00 -1,7 -5,3
21.03.2019 04:00:00 -1,3 -4,9
21.03.2019 03:00:00 -1,1 -5,0
21.03.2019 02:00:00 -0,8 -4,9
21.03.2019 01:00:00 -0,7 -5,4
21.03.2019 00:00:00 -0,3 -5,4
20.03.2019 23:00:00 -0,2 -5,5
20.03.2019 22:00:00 0,1 -5,8
20.03.2019 21:00:00 - -
20.03.2019 20:00:00 - -
20.03.2019 19:00:00 0,7 -4,0
20.03.2019 18:00:00 1,4 -4,1
20.03.2019 17:00:00 2,0 -4,2
20.03.2019 16:00:00 2,4 -3,6
20.03.2019 15:00:00 2,5 -3,5
20.03.2019 14:00:00 2,5 -
20.03.2019 13:00:00 3,3 -
20.03.2019 12:00:00 2,9 -2,3
20.03.2019 11:00:00 0,1 -
20.03.2019 10:00:00 1,1 -2,0
20.03.2019 09:00:00 -0,4 -2,8
20.03.2019 08:00:00 -2,2 -4,1
20.03.2019 07:00:00 -2,9 -4,6
20.03.2019 06:00:00 -2,7 -4,9
20.03.2019 05:00:00 -2,4 -
20.03.2019 04:00:00 -2,1 -
20.03.2019 03:00:00 -1,4 -5,0
20.03.2019 02:00:00 -1,3 -5,0
20.03.2019 01:00:00 -1,0 -
20.03.2019 00:00:00 - -
19.03.2019 23:00:00 - -
19.03.2019 22:00:00 -0,8 -5,5
19.03.2019 21:00:00 -0,8 -5,3
19.03.2019 20:00:00 -0,4 -5,7
19.03.2019 19:00:00 0,0 -6,7
19.03.2019 18:00:00 1,1 -6,1
19.03.2019 17:00:00 1,8 -6,2
19.03.2019 16:00:00 3,2 -5,1
19.03.2019 15:00:00 3,5 -5,3
19.03.2019 14:00:00 4,3 -
19.03.2019 13:00:00 4,0 -2,3
19.03.2019 12:00:00 2,6 -1,8
19.03.2019 11:00:00 1,7 -1,3
19.03.2019 10:00:00 0,1 -
19.03.2019 09:00:00 -0,8 -2,0
19.03.2019 08:00:00 -2,0 -2,8
19.03.2019 07:00:00 -2,5 -3,3

tt = temperature
td = dewpoint

Next stations